This demonstration page uses our WeatherBlox Daily Observations layout. Learn more.

Left ArrowRight Arrow

Hourly Observations for August 2, 2015

Temp ( °F °C ) Dew Point ( °F °C ) Humidity (%) Winds ( mph kmh ) Pressure ( in mb ) Visibility ( mi km ) Precip ( " mm )
12:53 am 00:53 Clear 83 28.3 60 15.6 46 46 SE 10 17 29.86 1011 10 16 0.00 0.00
1:53 am 01:53 Clear 81 27.2 59 15 47 47 ESE 6 9 29.85 1011 10 16 0.00 0.00
2:53 am 02:53 Clear 78 25.6 59 15 52 52 NNE 7 11 29.86 1011 10 16 0.00 0.00
3:53 am 03:53 Clear 77 25 59 15 54 54 ENE 7 11 29.84 1010 10 16 0.00 0.00
4:53 am 04:53 Clear 76 24.4 59 15 56 56 ESE 7 11 29.81 1010 10 16 0.00 0.00
5:53 am 05:53 Clear 75 23.9 59 15 58 58 ESE 7 11 29.82 1010 10 16 0.00 0.00
6:53 am 06:53 Clear 75 23.9 60 15.6 60 60 SE 9 15 29.81 1010 10 16 0.00 0.00
7:53 am 07:53 Sunny 76 24.4 61 16.1 60 60 ESE 8 13 29.83 1010 10 16 0.00 0.00
8:53 am 08:53 Sunny 81 27.2 61 16.1 51 51 SSE 13 20 29.84 1011 10 16 0.00 0.00
9:53 am 09:53 Sunny 85 29.4 61 16.1 45 45 SSE 8 13 29.85 1011 10 16 0.00 0.00
10:53 am 10:53 Sunny 89 31.7 61 16.1 39 39 VRB 5 7 29.85 1011 10 16 0.00 0.00
11:53 am 11:53 Sunny 93 33.9 60 15.6 33 33 VRB 5 7 29.83 1010 10 16 0.00 0.00
12:53 pm 12:53 Sunny 96 35.6 58 14.4 28 28 NW 6 9 29.81 1010 10 16 0.00 0.00
1:53 pm 13:53 Sunny 100 37.8 55 12.8 22 22 undefined N/A 29.78 1009 10 16 0.00 0.00
2:53 pm 14:53 Mostly Sunny 100 37.8 54 12.2 21 21 SSE 8 13 29.76 1008 10 16 0.00 0.00
3:53 pm 15:53 Mostly Sunny 102 38.9 53 11.7 19 19 S 13 20 29.73 1007 10 16 0.00 0.00
4:53 pm 16:53 Partly Cloudy 99 37.2 53 11.7 21 21 E 6 9 29.71 1006 10 16 0.00 0.00
5:53 pm 17:53 Sunny 99 37.2 54 12.2 22 22 SSE 17 28 29.70 1006 10 16 0.00 0.00
6:53 pm 18:53 Partly Cloudy 99 37.2 53 11.7 21 21 SSE 12 19 29.69 1006 10 16 0.00 0.00
7:27 pm 19:27 Mostly Cloudy with Nearby Thunderstorms 98 36.7 53 11.7 22 22 ESE 12 19 29.59 1002 10 16 0.00 0.00
7:53 pm 19:53 Mostly Cloudy with Nearby Thunderstorms 97 36.1 52 11.1 22 22 SE 10 17 29.69 1005 10 16 0.00 0.00
8:10 pm 20:10 Cloudy with Thunderstorms 91 33 57 14 32 32 N 5 7 29.65 1004 10 16 0.00 0.00
8:34 pm 20:34 Cloudy with Nearby Thunderstorms 79 26 64 18 61 61 NW 28 44 29.71 1006 7 11 0.00 0.00
8:41 pm 20:41 Cloudy with Rain 76 24.4 66 18.9 72 72 WNW 22 35 29.77 1008 3 4 0.07 1.78
8:51 pm 20:51 Cloudy with Heavy Rain 81 27 63 17 54 54 E 14 22 29.77 1008 2 2 0.32 8.13
8:53 pm 20:53 Cloudy with Nearby Thunderstorms 79 26.1 63 17.2 58 58 E 17 28 29.79 1009 2 3 0.34 8.64
8:58 pm 20:58 Cloudy with Nearby Thunderstorms 81 27 63 17 54 54 ENE 21 33 29.77 1008 3 5 0.00 0.00
9:12 pm 21:12 Windy with Storms Likely 75 24 64 18 69 69 NE 21 33 29.77 1008 5 8 0.00 0.00
9:40 pm 21:40 Mostly Cloudy with Nearby Thunderstorms 79 26 64 18 61 61 ENE 18 30 29.74 1007 10 16 0.00 0.00
9:53 pm 21:53 Mostly Cloudy 79 26.1 65 18.3 62 62 E 13 20 29.77 1008 10 16 0.12 3.05
10:13 pm 22:13 Partly Cloudy 81 27.2 64 17.8 57 57 SSE 14 22 29.77 1008 10 16 0.00 0.00
10:49 pm 22:49 Mostly Cloudy with Nearby Thunderstorms 81 27 63 17 54 54 SE 13 20 29.77 1008 10 16 0.00 0.00
10:53 pm 22:53 Mostly Cloudy with Nearby Thunderstorms 81 27.2 63 17.2 54 54 ESE 14 22 29.79 1009 10 16 0.00 0.00
11:04 pm 23:04 Partly Cloudy 81 27 64 18 58 58 ESE 12 19 29.77 1008 10 16 0.00 0.00
11:53 pm 23:53 Clear 80 26.7 65 18.3 60 60 ESE 12 19 29.78 1009 10 16 0.00 0.00

Powered by AerisWeather